SCP
1 2 2 2 1 1 1 0 0 0 0 0 0 0 0 0 0 0 0 1 0 0 0 0 0 0 1 1 1 0 0 0 0 0 0 -0 0 0 0 0 0 0 0
2 2 3 2 2 2 0 0 0 0 0 0 0 0 0 0 0 0 0 0 0 0 0 0 0 0 0 1 0 0 0 0 0 0 0 0 0 0 0 0 0 0 0
2 2 2 2 2 1 1 1 0 0 0 0 0 0 0 0 0 0 0 0 0 0 0 0 0 0 0 1 0 0 0 0 0 0 0 0 0 0 0 0 0 0 0
2 2 2 1 1 1 1 1 1 1 0 0 0 0 0 0 0 0 0 0 0 0 0 0 0 0 0 0 0 0 0 0 0 0 0 0 0 0 0 0 0 0 0
2 2 1 1 1 1 1 1 1 0 0 0 0 0 0 0 0 0 0 0 0 0 0 0 0 0 0 0 0 0 0 0 0 0 0 0 0 0 0 0 0 0 0
2 2 2 1 1 1 1 1 0 0 0 0 0 0 0 0 0 0 0 0 0 0 0 0 0 0 0 1 0 0 0 0 0 0 0 0 0 0 0 0 0 0 0
2 2 1 1 1 1 0 0 0 0 0 0 0 0 0 0 0 0 0 0 0 0 0 0 0 0 1 0 0 0 0 0 -0 0 0 0 0 0 0 0 0 0 0
2 1 1 1 0 0 0 0 0 0 0 0 0 0 0 0 0 0 0 0 0 0 0 0 0 0 1 1 0 0 0 -0 -0 -0 0 0 0 0 -0 0 0 0 -0
1 1 0 0 0 0 0 0 0 0 0 0 0 0 0 0 0 0 0 0 0 0 0 1 0 0 1 1 0 0 0 0 0 -0 -0 0 0 0 -0 0 0 0 -0
1 1 0 0 0 0 0 0 0 0 0 0 0 -0 -0 0 0 0 0 0 0 0 0 0 0 0 1 1 1 0 0 0 0 -0 -0 -0 -0 -0 -0 0 0 0 0
1 0 0 0 0 0 0 0 0 -0 -0 -0 -0 -0 -0 0 0 0 0 0 0 0 0 0 0 0 0 0 0 0 0 0 0 0 -0 -0 -0 -0 -0 -0 -0 -0 0
0 0 0 0 0 0 -0 -0 -0 -0 0 0 0 0 0 0 -0 0 0 0 0 0 0 0 0 0 0 0 0 0 0 0 0 0 -0 -0 -0 -0 -0 -0 0 -0 -0
0 0 0 0 0 -0 -0 -0 -0 -0 0 0 -0 0 -0 0 0 0 0 0 0 0 0 0 0 0 0 0 0 0 -0 -0 0 0 0 0 -0 -0 0 -0 0 0 -0
0 0 0 0 -0 -0 -0 -0 -0 -0 0 0 -0 -0 -0 -0 -0 0 -0 0 0 0 0 0 0 0 0 -0 0 0 0 0 -0 -0 -0 -0 -0 0 0 -0 0 0 -0
0 -0 -0 -0 -0 -0 -0 0 0 0 0 0 0 0 -0 -0 -0 -0 0 0 0 0 0 0 0 0 0 0 0 0 0 -0 -0 -0 -0 0 0 0 -0 0 0 0 0
0 -0 -0 -0 -0 -0 -0 0 0 0 0 0 0 -0 0 0 0 0 0 0 0 0 0 0 0 0 0 0 0 0 0 0 -0 0 0 0 0 0 0 0 0 0 0
0 -0 -0 -0 0 -0 -0 0 0 0 0 0 0 0 0 -0 -0 0 0 0 0 0 0 0 0 0 0 0 0 0 0 0 0 0 0 0 0 0 0 0 0 0 0
0 -0 -0 0 0 -0 -0 0 0 0 0 -0 0 0 0 0 0 0 0 0 0 0 0 0 0 0 0 0 0 0 0 0 0 0 -0 0 0 0 0 0 -0 0 0
0 -0 -0 0 0 -0 -0 -0 0 0 0 0 0 0 0 0 -0 0 0 0 0 0 0 0 0 0 0 0 0 0 0 0 0 -0 -0 0 0 0 -0 -0 0 -0 -0
0 0 -0 0 -0 -0 0 -0 -0 0 0 0 0 0 0 0 -0 -0 0 0 0 0 0 0 0 0 0 0 0 0 0 0 0 0 -0 0 0 -0 -0 0 -0 -0 -0
0 0 0 0 0 -0 -0 -0 0 -0 0 0 0 0 0 -0 -0 -0 0 -0 -0 0 0 0 0 0 0 0 0 0 0 0 0 0 0 0 0 0 0 0 -0 -0 -0
0 0 0 0 -0 0 -0 -0 0 0 0 -0 -0 -0 -0 -0 -0 -0 -0 -0 -0 0 0 0 0 0 0 -0 0 0 0 0 0 0 0 0 0 0 0 0 -0 0 0
-0 0 0 -0 -0 0 -0 -0 -0 -0 0 0 -0 -0 -0 0 -0 0 -0 -0 -0 0 0 0 0 0 0 0 0 0 0 0 0 -0 -0 -0 0 0 0 0 0 0 0
-0 0 0 -0 -0 0 -0 -0 0 0 -0 -0 -0 -0 -0 -0 -0 0 0 0 0 0 0 0 0 0 0 0 0 -0 -0 -0 -0 -0 -0 0 0 -0 0 0 0 0 0
0 -0 0 -0 -0 0 0 0 0 0 -0 -0 -0 -0 -0 -0 -0 -0 -0 -0 0 0 0 0 0 0 -0 0 0 -0 -0 -0 -0 -0 0 0 -0 0 0 0 0 0 0
0 0 0 -0 -0 -0 -0 -0 0 0 0 0 0 -0 -0 -0 -0 -0 -0 -0 0 0 0 0 0 0 -0 -0 -0 0 -0 -0 0 -0 0 0 0 0 0 0 0 0 0
Wind_Speed_500mb
21 23 29 36 38 41 41 34 34 29 23 25 33 30 30 32 39 39 24 45 37 35 35 39 38 39 43 40 37 36 40 46 46 47 37 33 44 42 39 37 30 27 25
31 34 35 35 36 37 34 38 41 34 40 34 30 30 38 28 35 42 24 32 31 34 36 42 39 40 43 44 39 41 41 40 47 47 43 43 46 42 45 43 36 31 25
36 30 32 34 40 44 43 43 41 39 35 34 35 36 36 39 37 38 40 36 31 29 26 31 38 39 42 45 44 43 44 39 49 51 42 40 41 39 48 46 44 37 22
35 32 31 35 38 41 38 40 41 45 40 36 31 39 41 41 47 46 48 45 32 26 22 17 31 37 43 47 46 46 45 44 51 49 41 37 39 43 51 49 44 30 24
28 34 29 34 39 37 34 36 35 37 34 36 38 34 36 39 39 44 35 45 47 30 27 27 24 35 43 48 47 49 48 50 59 51 42 42 39 48 55 49 38 31 22
28 31 32 41 37 35 34 32 34 33 34 35 30 31 32 33 34 36 42 40 40 45 43 28 34 33 43 49 49 54 55 53 59 50 45 41 45 58 53 46 38 29 26
38 34 35 33 34 40 31 28 27 28 31 29 27 27 30 27 30 34 40 36 37 28 31 34 35 33 44 51 51 58 60 57 56 52 41 43 53 58 53 40 35 31 25
39 30 31 31 23 25 22 23 23 24 29 29 33 22 14 22 26 32 30 42 43 38 33 43 41 36 43 51 54 59 59 62 57 50 42 48 64 59 46 44 35 31 40
22 28 27 26 24 18 16 16 21 25 28 27 34 20 12 13 29 34 35 32 36 41 28 34 34 37 43 48 56 60 62 53 54 50 50 64 64 51 47 45 35 41 28
20 27 23 17 18 19 21 20 21 21 21 20 24 36 23 9 19 14 33 31 32 30 31 26 26 32 41 45 57 67 66 59 53 56 67 69 60 51 50 47 50 41 25
29 27 21 21 22 23 18 13 12 19 20 26 31 33 26 17 29 20 19 27 22 18 14 20 20 26 36 49 59 68 60 55 56 58 79 71 60 58 53 53 41 28 22
22 18 19 19 18 17 11 11 14 15 17 24 32 25 18 13 14 9 14 25 23 21 18 11 10 12 33 42 64 75 57 62 58 78 75 67 63 60 53 46 33 26 22
12 12 22 23 19 11 12 18 18 15 14 23 28 26 18 17 15 19 13 27 27 26 20 17 16 8 1 54 47 68 69 68 77 77 71 65 65 60 49 36 33 25 24
6 11 20 18 13 12 11 16 12 10 12 14 17 17 9 9 9 14 33 28 29 27 21 21 18 21 26 29 27 57 74 70 81 81 73 62 60 54 34 32 27 25 24
4 6 12 12 10 16 15 11 9 5 4 10 14 16 18 13 12 16 29 35 31 33 26 20 25 23 31 40 51 46 46 79 86 75 69 64 55 43 39 32 27 26 22
7 5 8 11 11 18 14 11 7 5 3 6 8 13 17 19 15 16 27 31 26 29 26 27 30 30 30 35 57 52 83 76 77 66 69 64 47 42 39 30 25 22 19
16 9 14 13 15 14 13 9 5 7 3 6 5 6 8 15 13 14 27 30 29 29 31 35 32 30 41 48 56 56 78 75 75 76 65 54 44 41 33 30 26 20 16
14 15 13 17 15 14 10 8 7 10 6 4 5 3 11 7 8 20 23 23 22 15 21 37 37 38 47 64 83 86 74 74 71 63 54 45 45 46 35 32 23 20 19
20 15 13 16 14 13 11 10 9 7 8 4 7 11 9 16 21 22 21 12 15 15 17 27 49 54 62 74 84 85 86 71 60 55 45 43 44 44 38 27 23 21 18
23 23 14 16 16 12 10 10 7 10 11 12 12 6 13 16 17 19 21 15 14 23 38 48 73 83 88 92 95 94 85 70 64 51 44 43 38 33 30 27 23 20 19
20 20 23 20 17 15 13 12 12 15 12 11 12 11 12 13 12 15 16 19 18 36 64 87 82 90 86 85 83 77 75 63 48 43 46 44 38 33 28 24 22 20 17
18 21 19 22 18 14 12 18 11 15 11 10 10 7 8 6 12 17 14 13 18 41 67 77 80 87 85 83 75 68 60 53 46 45 45 37 27 27 26 23 21 18 16
20 18 20 19 16 13 19 17 15 17 11 12 16 16 10 5 15 17 19 17 23 50 70 87 84 81 81 74 71 57 51 48 51 54 38 31 29 25 24 23 24 22 16
19 20 21 17 12 19 23 18 14 15 14 17 16 15 16 17 17 22 31 33 43 64 79 79 69 69 63 51 49 47 45 41 43 42 38 38 30 26 22 26 26 21 16
12 24 22 16 18 25 24 24 23 19 20 19 15 14 10 13 19 23 35 45 45 61 61 63 50 45 52 44 45 53 47 49 51 47 41 26 32 29 23 27 27 22 18
13 23 24 17 22 24 20 18 15 18 22 27 21 22 21 28 28 28 32 37 45 59 64 57 58 52 52 46 43 43 42 39 45 38 39 24 22 20 15 20 21 25 23
Wind_Direction_500mb
242 243 253 255 265 260 254 261 252 247 251 248 251 250 267 247 243 249 233 230 229 237 254 260 244 232 218 217 217 215 208 208 207 202 202 205 200 188 189 191 184 170 170
248 238 235 261 269 261 258 243 250 250 238 236 246 243 240 248 249 247 239 238 236 248 252 255 242 229 219 214 214 213 208 207 210 211 202 198 199 196 199 193 177 168 167
257 251 238 243 264 259 261 248 249 250 243 249 237 246 246 244 239 238 237 228 243 245 252 254 236 224 218 212 212 212 206 199 196 197 198 199 201 214 193 182 166 160 174
266 254 247 260 251 267 265 249 251 254 251 244 245 242 243 241 238 229 231 228 224 243 257 260 232 225 214 209 209 209 201 199 193 195 195 195 198 195 183 168 166 172 166
268 260 276 259 268 270 267 260 258 250 253 242 245 248 248 246 237 225 230 227 221 225 245 251 251 225 213 208 207 206 197 198 191 193 193 195 198 185 170 168 167 168 136
252 266 271 272 275 278 275 262 266 245 250 238 240 245 246 245 244 226 213 221 216 229 218 241 237 217 211 208 206 201 196 202 193 189 189 195 192 176 172 172 170 139 140
241 270 267 273 282 279 275 263 253 256 233 234 235 243 245 241 224 212 213 221 223 221 220 230 238 216 212 210 204 203 197 206 196 189 191 186 184 175 170 174 156 140 160
276 262 271 280 279 278 277 258 249 238 234 231 230 227 229 222 214 206 219 223 222 215 223 226 243 236 212 211 204 202 198 203 192 190 193 191 180 169 173 172 145 165 168
281 259 268 272 273 263 264 254 242 240 242 240 224 196 176 213 208 212 225 225 231 216 209 227 237 218 210 210 206 200 200 189 189 186 189 181 169 170 171 159 158 168 175
271 270 254 262 261 271 264 260 251 236 221 206 209 203 190 240 174 214 214 210 211 198 207 225 233 211 208 210 204 195 189 193 188 183 180 168 167 170 170 157 168 170 184
278 269 245 249 259 266 260 232 209 210 212 202 207 212 237 221 215 207 192 197 199 193 197 214 224 216 211 199 198 193 192 189 185 182 173 166 168 169 164 162 155 159 175
271 247 220 254 262 257 218 175 223 224 225 212 209 219 262 216 221 193 195 178 173 168 174 175 202 218 210 202 192 188 192 182 183 176 165 165 169 167 162 160 147 173 165
275 225 205 235 257 232 173 208 226 215 204 204 204 216 231 225 224 216 195 188 160 145 145 141 149 156 167 197 204 184 192 176 170 164 162 168 162 156 158 146 162 166 172
286 192 211 230 233 171 176 228 228 204 210 208 211 205 215 200 196 273 214 186 149 141 138 133 128 128 137 131 201 191 184 166 170 165 162 163 159 166 170 153 161 168 171
211 187 202 212 188 151 199 230 185 175 204 221 217 224 218 197 197 189 192 190 183 151 139 142 121 125 137 148 180 170 173 175 163 159 161 162 161 160 153 165 170 173 172
115 168 180 173 135 159 204 210 185 187 170 177 220 216 229 245 251 209 181 168 170 158 142 158 144 145 136 139 173 165 161 163 165 156 158 160 161 156 157 174 170 177 174
156 152 125 117 141 161 209 235 190 141 160 262 280 291 251 222 224 197 172 167 168 166 172 156 147 150 154 163 169 182 179 167 154 159 161 165 167 152 164 173 178 171 190
145 132 130 142 148 164 182 193 164 184 216 297 161 135 150 162 168 154 158 152 166 167 173 158 152 159 165 169 171 158 146 145 146 153 159 166 167 158 172 185 183 196 206
144 157 136 142 171 151 166 163 169 165 110 140 118 135 119 121 121 139 146 140 170 154 144 159 158 174 168 171 150 148 149 148 145 158 168 167 164 169 181 184 198 207 218
150 139 148 129 118 131 132 142 147 122 119 123 129 151 152 108 124 154 162 173 171 176 155 154 155 143 141 148 152 146 142 148 160 169 166 169 165 170 188 200 205 217 232
150 153 156 139 142 148 163 149 140 150 155 152 135 172 157 154 157 166 171 167 164 159 145 141 135 141 145 144 144 148 149 156 159 171 161 166 172 185 195 204 216 231 242
151 150 160 150 155 172 200 161 130 141 130 158 162 146 112 148 141 136 158 168 166 161 152 147 144 143 147 150 153 156 157 161 146 159 160 161 179 195 207 215 222 224 227
145 147 143 151 184 180 159 156 134 130 117 110 111 117 118 135 136 137 138 140 145 166 159 150 150 157 161 161 159 158 166 168 167 155 160 164 194 207 211 219 218 218 230
157 159 144 168 184 155 149 151 131 129 128 118 133 147 157 146 138 145 140 143 151 162 165 162 158 158 153 155 152 146 141 144 145 150 172 178 197 219 230 227 219 227 240
135 147 158 165 150 144 141 134 126 145 146 158 148 154 193 181 163 156 154 144 154 166 169 168 161 153 158 152 150 147 147 158 160 173 190 210 213 226 229 227 227 234 240
145 160 165 150 150 146 139 127 123 136 139 145 136 127 122 118 126 150 157 153 159 166 171 169 164 160 151 151 154 157 162 167 176 180 190 207 228 224 229 220 233 244 240
Wind_Speed_850mb
21 23 29 36 38 41 41 34 34 29 23 25 33 30 30 32 39 39 24 45 37 35 35 39 38 39 43 40 37 36 40 46 46 47 37 33 44 42 39 37 30 27 25
31 34 35 35 36 37 34 38 41 34 40 34 30 30 38 28 35 42 24 32 31 34 36 42 39 40 43 44 39 41 41 40 47 47 43 43 46 42 45 43 36 31 25
36 30 32 34 40 44 43 43 41 39 35 34 35 36 36 39 37 38 40 36 31 29 26 31 38 39 42 45 44 43 44 39 49 51 42 40 41 39 48 46 44 37 22
35 32 31 35 38 41 38 40 41 45 40 36 31 39 41 41 47 46 48 45 32 26 22 17 31 37 43 47 46 46 45 44 51 49 41 37 39 43 51 49 44 30 24
28 34 29 34 39 37 34 36 35 37 34 36 38 34 36 39 39 44 35 45 47 30 27 27 24 35 43 48 47 49 48 50 59 51 42 42 39 48 55 49 38 31 22
28 31 32 41 37 35 34 32 34 33 34 35 30 31 32 33 34 36 42 40 40 45 43 28 34 33 43 49 49 54 55 53 59 50 45 41 45 58 53 46 38 29 26
38 34 35 33 34 40 31 28 27 28 31 29 27 27 30 27 30 34 40 36 37 28 31 34 35 33 44 51 51 58 60 57 56 52 41 43 53 58 53 40 35 31 25
39 30 31 31 23 25 22 23 23 24 29 29 33 22 14 22 26 32 30 42 43 38 33 43 41 36 43 51 54 59 59 62 57 50 42 48 64 59 46 44 35 31 40
22 28 27 26 24 18 16 16 21 25 28 27 34 20 12 13 29 34 35 32 36 41 28 34 34 37 43 48 56 60 62 53 54 50 50 64 64 51 47 45 35 41 28
20 27 23 17 18 19 21 20 21 21 21 20 24 36 23 9 19 14 33 31 32 30 31 26 26 32 41 45 57 67 66 59 53 56 67 69 60 51 50 47 50 41 25
29 27 21 21 22 23 18 13 12 19 20 26 31 33 26 17 29 20 19 27 22 18 14 20 20 26 36 49 59 68 60 55 56 58 79 71 60 58 53 53 41 28 22
22 18 19 19 18 17 11 11 14 15 17 24 32 25 18 13 14 9 14 25 23 21 18 11 10 12 33 42 64 75 57 62 58 78 75 67 63 60 53 46 33 26 22
12 12 22 23 19 11 12 18 18 15 14 23 28 26 18 17 15 19 13 27 27 26 20 17 16 8 1 54 47 68 69 68 77 77 71 65 65 60 49 36 33 25 24
6 11 20 18 13 12 11 16 12 10 12 14 17 17 9 9 9 14 33 28 29 27 21 21 18 21 26 29 27 57 74 70 81 81 73 62 60 54 34 32 27 25 24
4 6 12 12 10 16 15 11 9 5 4 10 14 16 18 13 12 16 29 35 31 33 26 20 25 23 31 40 51 46 46 79 86 75 69 64 55 43 39 32 27 26 22
7 5 8 11 11 18 14 11 7 5 3 6 8 13 17 19 15 16 27 31 26 29 26 27 30 30 30 35 57 52 83 76 77 66 69 64 47 42 39 30 25 22 19
16 9 14 13 15 14 13 9 5 7 3 6 5 6 8 15 13 14 27 30 29 29 31 35 32 30 41 48 56 56 78 75 75 76 65 54 44 41 33 30 26 20 16
14 15 13 17 15 14 10 8 7 10 6 4 5 3 11 7 8 20 23 23 22 15 21 37 37 38 47 64 83 86 74 74 71 63 54 45 45 46 35 32 23 20 19
20 15 13 16 14 13 11 10 9 7 8 4 7 11 9 16 21 22 21 12 15 15 17 27 49 54 62 74 84 85 86 71 60 55 45 43 44 44 38 27 23 21 18
23 23 14 16 16 12 10 10 7 10 11 12 12 6 13 16 17 19 21 15 14 23 38 48 73 83 88 92 95 94 85 70 64 51 44 43 38 33 30 27 23 20 19
20 20 23 20 17 15 13 12 12 15 12 11 12 11 12 13 12 15 16 19 18 36 64 87 82 90 86 85 83 77 75 63 48 43 46 44 38 33 28 24 22 20 17
18 21 19 22 18 14 12 18 11 15 11 10 10 7 8 6 12 17 14 13 18 41 67 77 80 87 85 83 75 68 60 53 46 45 45 37 27 27 26 23 21 18 16
20 18 20 19 16 13 19 17 15 17 11 12 16 16 10 5 15 17 19 17 23 50 70 87 84 81 81 74 71 57 51 48 51 54 38 31 29 25 24 23 24 22 16
19 20 21 17 12 19 23 18 14 15 14 17 16 15 16 17 17 22 31 33 43 64 79 79 69 69 63 51 49 47 45 41 43 42 38 38 30 26 22 26 26 21 16
12 24 22 16 18 25 24 24 23 19 20 19 15 14 10 13 19 23 35 45 45 61 61 63 50 45 52 44 45 53 47 49 51 47 41 26 32 29 23 27 27 22 18
13 23 24 17 22 24 20 18 15 18 22 27 21 22 21 28 28 28 32 37 45 59 64 57 58 52 52 46 43 43 42 39 45 38 39 24 22 20 15 20 21 25 23
Wind_Direction_850mb
242 243 253 255 265 260 254 261 252 247 251 248 251 250 267 247 243 249 233 230 229 237 254 260 244 232 218 217 217 215 208 208 207 202 202 205 200 188 189 191 184 170 170
248 238 235 261 269 261 258 243 250 250 238 236 246 243 240 248 249 247 239 238 236 248 252 255 242 229 219 214 214 213 208 207 210 211 202 198 199 196 199 193 177 168 167
257 251 238 243 264 259 261 248 249 250 243 249 237 246 246 244 239 238 237 228 243 245 252 254 236 224 218 212 212 212 206 199 196 197 198 199 201 214 193 182 166 160 174
266 254 247 260 251 267 265 249 251 254 251 244 245 242 243 241 238 229 231 228 224 243 257 260 232 225 214 209 209 209 201 199 193 195 195 195 198 195 183 168 166 172 166
268 260 276 259 268 270 267 260 258 250 253 242 245 248 248 246 237 225 230 227 221 225 245 251 251 225 213 208 207 206 197 198 191 193 193 195 198 185 170 168 167 168 136
252 266 271 272 275 278 275 262 266 245 250 238 240 245 246 245 244 226 213 221 216 229 218 241 237 217 211 208 206 201 196 202 193 189 189 195 192 176 172 172 170 139 140
241 270 267 273 282 279 275 263 253 256 233 234 235 243 245 241 224 212 213 221 223 221 220 230 238 216 212 210 204 203 197 206 196 189 191 186 184 175 170 174 156 140 160
276 262 271 280 279 278 277 258 249 238 234 231 230 227 229 222 214 206 219 223 222 215 223 226 243 236 212 211 204 202 198 203 192 190 193 191 180 169 173 172 145 165 168
281 259 268 272 273 263 264 254 242 240 242 240 224 196 176 213 208 212 225 225 231 216 209 227 237 218 210 210 206 200 200 189 189 186 189 181 169 170 171 159 158 168 175
271 270 254 262 261 271 264 260 251 236 221 206 209 203 190 240 174 214 214 210 211 198 207 225 233 211 208 210 204 195 189 193 188 183 180 168 167 170 170 157 168 170 184
278 269 245 249 259 266 260 232 209 210 212 202 207 212 237 221 215 207 192 197 199 193 197 214 224 216 211 199 198 193 192 189 185 182 173 166 168 169 164 162 155 159 175
271 247 220 254 262 257 218 175 223 224 225 212 209 219 262 216 221 193 195 178 173 168 174 175 202 218 210 202 192 188 192 182 183 176 165 165 169 167 162 160 147 173 165
275 225 205 235 257 232 173 208 226 215 204 204 204 216 231 225 224 216 195 188 160 145 145 141 149 156 167 197 204 184 192 176 170 164 162 168 162 156 158 146 162 166 172
286 192 211 230 233 171 176 228 228 204 210 208 211 205 215 200 196 273 214 186 149 141 138 133 128 128 137 131 201 191 184 166 170 165 162 163 159 166 170 153 161 168 171
211 187 202 212 188 151 199 230 185 175 204 221 217 224 218 197 197 189 192 190 183 151 139 142 121 125 137 148 180 170 173 175 163 159 161 162 161 160 153 165 170 173 172
115 168 180 173 135 159 204 210 185 187 170 177 220 216 229 245 251 209 181 168 170 158 142 158 144 145 136 139 173 165 161 163 165 156 158 160 161 156 157 174 170 177 174
156 152 125 117 141 161 209 235 190 141 160 262 280 291 251 222 224 197 172 167 168 166 172 156 147 150 154 163 169 182 179 167 154 159 161 165 167 152 164 173 178 171 190
145 132 130 142 148 164 182 193 164 184 216 297 161 135 150 162 168 154 158 152 166 167 173 158 152 159 165 169 171 158 146 145 146 153 159 166 167 158 172 185 183 196 206
144 157 136 142 171 151 166 163 169 165 110 140 118 135 119 121 121 139 146 140 170 154 144 159 158 174 168 171 150 148 149 148 145 158 168 167 164 169 181 184 198 207 218
150 139 148 129 118 131 132 142 147 122 119 123 129 151 152 108 124 154 162 173 171 176 155 154 155 143 141 148 152 146 142 148 160 169 166 169 165 170 188 200 205 217 232
150 153 156 139 142 148 163 149 140 150 155 152 135 172 157 154 157 166 171 167 164 159 145 141 135 141 145 144 144 148 149 156 159 171 161 166 172 185 195 204 216 231 242
151 150 160 150 155 172 200 161 130 141 130 158 162 146 112 148 141 136 158 168 166 161 152 147 144 143 147 150 153 156 157 161 146 159 160 161 179 195 207 215 222 224 227
145 147 143 151 184 180 159 156 134 130 117 110 111 117 118 135 136 137 138 140 145 166 159 150 150 157 161 161 159 158 166 168 167 155 160 164 194 207 211 219 218 218 230
157 159 144 168 184 155 149 151 131 129 128 118 133 147 157 146 138 145 140 143 151 162 165 162 158 158 153 155 152 146 141 144 145 150 172 178 197 219 230 227 219 227 240
135 147 158 165 150 144 141 134 126 145 146 158 148 154 193 181 163 156 154 144 154 166 169 168 161 153 158 152 150 147 147 158 160 173 190 210 213 226 229 227 227 234 240
145 160 165 150 150 146 139 127 123 136 139 145 136 127 122 118 126 150 157 153 159 166 171 169 164 160 151 151 154 157 162 167 176 180 190 207 228 224 229 220 233 244 240